Back to catalog

FENGYUN 1C DEB

AliveSSO
NORAD 31272·DEBRIS·🇨🇳 China

Launched May 10, 1999 from Taiyuan Satellite Launch Center

Loading…

Next Passes (next 24 hours)

TLE

FreshSource: Space-Track

Epoch: Sep 13, 2026, 09:35 UTC

1 31272U 99025BNE 26256.39993540  .00000719  00000-0  31747-3 0  9995
2 31272  99.0576 141.7651 0106887  46.4751 314.5247 14.23485193  8874

Track FENGYUN 1C DEB in real time with AllMySat

Download on the App Store